Showing default

QIANFAN-29, 61562

Orbit data source: Space-Track

QIANFAN-29, 61562 is a Chinese payload satellite in LEO that was launched on Tue, 15 Oct 2024 UTC via a CHANG ZHENG 6A launch vehicle from the Taiyaun Space Center, China (TSC). Payload-class satellites include a variety of spacecraft equipped with specific instruments for various scientific and technological missions. These include communications satellites like Starlink; space stations such as the ISS; scientific satellites like the Hubble; Earth observation satellites from companies like Planet Labs, Umbra, and HawkEye 360; GPS; miniature CubeSats for education and research; and military/defense satellites.

Loading next visibility...
Identifier
61562, 2024-185L
Orbit
LEO
Country
Flag of CNCN / PRC
Related business
Manufacturer
GESIH/SECM
Mission
Operational Commercial Communications
Bus & Motor
QIANFAN, Unknown motor
Mass
267 kg wet, ~267 kg dry
Launch date (UTC)
2024-10-15 (1 year ago)
Launch vehicle
CHANG ZHENG 6A
Launch site
Taiyaun Space Center, China (TSC)
Object type
Payload
Rocket body
Debris
Shape & HBR
Box + 1 Pan, 5.0 m
Radar Cross Section
13.200 m², Large (>1 m²)

Expand to show TLE details & history
Last TLE update: 18 hours ago

TLE from 18 hours ago
0 QIANFAN-29
1 61562U 24185L   25340.88809705  .00000280  00000-0  41522-3 0  9996
2 61562  88.9790  81.9139 0011520  73.9130 286.3289 13.51007926 67001
Epoch: 2025-12-06T21:18Z
TLE epoch observation values (Epoch: 2025-12-06T21:18:51.585Z)
Latitude
0.00003°
Longitude
46.28959°
Altitude
1,069.102 km
Speed
7.319 km/s
True Right ascension
05h 27m 39s
True Declination
0° 00' 00"
Sunlit
Object was in full shadow at epoch
Visualization orbit readout
Latitude
Unknown
Longitude
Unknown
Altitude
Unknown
Speed
Unknown
Apparent Right ascension
Unknown
Apparent Declination
Unknown
Sunlit
N/A
Visualization observer readout
Local Sidereal Time
13:18:46
Azimuth
Unknown
Elevation
Unknown
Doppler factor
Unknown
Orbital elements
Apogee altitude
1,074.179 km
Perigee altitude
1,057.028 km
Semi-major axis
7,443.741 km
Eccentricity
0.00115
Inclination
88.979°
RAAN
81.9139°
Arg. of periapsis
73.913°
True anomaly
286.20216°
Mean anomaly
286.3289°
Eccentric anomaly
286.26554°
Mean motion
3.37953 °/min
Orbital period
106.52 mins
BSTAR
0.00041522
Loading maneuver chart data...
Computing Atmospheric mass density...
Loading historical data...
Loading historical data...
Loading historical data...
Loading historical data...
Loading historical data...
Loading historical data...
Loading historical data...

Documentation

Showing up to 5 results
|